Regional Weather Roundup
Issued by NWS

Home | Current Version | Previous Version | Graphics & Text | Print | Product List | Glossary Off
Versions: 1 2 3 4 5 6 7 8 9 10 11 12 13 14 15 16 17 18 19 20 21 22 23 24 25 26 27 28 29 30 31 32 33 34 35 36 37 38 39 40 41 42 43 44 45 46 47 48 49 50

000
ASUS43 KMKX 102300
RWRWI

WISCONSIN REGIONAL WEATHER ROUNDUP
NATIONAL WEATHER SERVICE MILWAUKEE/SULLIVAN WI
500 PM CST WED FEB 10 2016

NOTE: "FAIR" INDICATES FEW OR NO CLOUDS BELOW 12,000 FEET WITH NO
SIGNIFICANT WEATHER AND/OR OBSTRUCTIONS TO VISIBILITY.

WIZ001-002-006>008-014>016-023>028-110000-
NORTHWEST WISCONSIN

CITY           SKY/WX    TMP DP  RH WIND       PRES   REMARKS
SUPERIOR ARPT  PTCLDY    11  -6  46 CALM      30.17R
ASHLAND        CLEAR      6  -4  63 N3        30.16R
HAYWARD        CLEAR     10  -4  53 N5        30.10R WCI   2
SIREN          CLEAR     10  -5  52 N5        30.14S WCI   1
CUMBERLAND     PTCLDY     9  -4  56 N8        30.10R WCI  -4
RICE LAKE      CLEAR     10  -3  55 NW5       30.12R WCI   2
CHETEK         PTCLDY    10  -2  58 NW6       30.11R WCI   0
LADYSMITH      CLEAR     11  -2  55 N9        30.09R WCI  -1
EAU CLAIRE     NOT AVBL
MENOMONIE      CLEAR     14  -4  44 N3        30.13R
NEW RICHMOND   MOCLDY     8  -4  57 NE3       30.13S
OSCEOLA        PTCLDY     9  -3  56 N6        30.17R WCI   0
$$

WIZ003>005-009-010-017-018-110000-
NORTH CENTRAL WISCONSIN

CITY           SKY/WX    TMP DP  RH WIND       PRES   REMARKS
MANITOWISH WTR CLOUDY     6  -3  67 NW12      30.03R WCI -10
ARBOR VITAE    CLOUDY     9  -1  63 N12       30.02R WCI  -6
WOODRUFF       CLOUDY     9  -1  63 N12       30.02R WCI  -6
RHINELANDER    CLOUDY     8  -4  58 NW10      30.02R WCI  -6
EAGLE RIVER    CLOUDY     7  -4  60 N8        30.01R WCI  -6
LAND O LAKES   CLOUDY     6  -2  69 NW7G16    30.01R WCI  -5
PHILLIPS       CLOUDY     7  -2  64 N7        30.04R WCI  -4
TOMAHAWK       CLOUDY     9  -3  59 N9        30.04R WCI  -4
MEDFORD        CLEAR      9  -4  57 N6        30.03R WCI  -1
MERRILL        PTCLDY    11  -4  49 N9        30.04R WCI  -1
$$

WIZ029-030-035-036-043>047-110000-
CENTRAL WISCONSIN

CITY           SKY/WX    TMP DP  RH WIND       PRES   REMARKS
WAUSAU         CLEAR     12  -4  48 NW10      30.03R WCI  -1
MOSINEE        CLEAR     10  -2  56 N8        30.04R WCI  -1
MARSHFIELD     CLEAR      9  -4  55 NW9       30.04R WCI  -4
STEVENS POINT  CLEAR     11  -5  49 NW6       30.04R WCI   1
WAUPACA        CLEAR     17  -5  38 NW9       30.06R WCI   5
WAUTOMA        NOT AVBL
WISC RAPIDS    CLEAR     10  -5  50 NW8       30.08R WCI  -2
CAMP DOUGLAS   NOT AVBL
$$

WIZ011>013-019>022-031-037>040-048>050-110000-
NORTHEAST WISCONSIN

CITY           SKY/WX    TMP DP  RH WIND       PRES   REMARKS
ANTIGO         CLEAR      8  -4  56 N8        30.01R WCI  -4
SHAWANO        CLEAR     17  -5  38 N8        30.05R WCI   6
OCONTO         CLEAR     13  -5  44 N7G17     30.05R WCI   3
STURGEON BAY   CLEAR     12  -6  44 N14       30.06R WCI  -3
GREEN BAY      CLEAR     11  -6  46 NW7       30.06R WCI   0
MANITOWOC      NOT AVBL
APPLETON       PTCLDY    12  -8  40 NW8       30.03R WCI   1
CLINTONVILLE   CLEAR     16  -6  38 NW10      30.05R WCI   3
OSHKOSH        CLEAR     12  -5  46 N9        30.06R WCI   0
$$

WIZ032>034-041-042-053>061-110000-
SOUTHWEST WISCONSIN

CITY           SKY/WX    TMP DP  RH WIND       PRES   REMARKS
LA CROSSE      CLEAR     10  -3  55 NW10      30.13R WCI  -4
SPARTA         CLEAR     14  -1  52 NW7       30.10R WCI   4
VIROQUA        CLEAR      9  -3  57 CALM      30.06R
BOSCOBEL       CLEAR     14  -3  47 N8        30.11R WCI   3
PRAIRIE DU CHI CLEAR     15  -3  46 N7        30.10R WCI   5
PLATTEVILLE    CLOUDY    13   2  61 CALM      30.05R
$$

WIZ056-057-062-063-064-067-068-110000-
SOUTH CENTRAL WISCONSIN

CITY           SKY/WX    TMP DP  RH WIND       PRES   REMARKS
REEDSBURG      CLEAR     13  -2  50 NW6       30.06R WCI   4
BARABOO/DELLS  CLEAR     14  -3  46 N6        30.06R WCI   5
LONE ROCK      NOT AVBL
MINERAL POINT  CLEAR     16  -4  41 NW6       30.04R WCI   7
MADISON        PTCLDY    13  -2  51 NW5       30.07R WCI   5
MIDDLETON      CLEAR     15   1  53 NW6       30.06R WCI   6
WATERTOWN      MOCLDY    13   1  59 N10       30.05R WCI   0
MONROE         CLEAR     14   1  57 NW3       30.04R
JANESVILLE     PTCLDY    16   1  53 NW12      30.07R WCI   3
$$

WIZ051-052-058>065-066-070>072-110000-
SOUTHEAST WISCONSIN

CITY           SKY/WX    TMP DP  RH WIND       PRES   REMARKS
MILWAUKEE      MOCLDY    13  -3  49 NW10      30.07R WCI   0
WAUKESHA       CLOUDY    10  -2  56 N9        30.05R WCI  -2
MILWAUKEE/TIMM CLEAR     12  -4  48 NW13      30.07R WCI  -3
RACINE         MOCLDY    13  -3  49 W8G17     30.08R WCI   2
BURLINGTON     CLOUDY    11   0  59 NW9       30.06R WCI  -2
KENOSHA        MOCLDY    13   0  56 NW7       30.06R WCI   3
FOND DU LAC    CLEAR     12  -3  51 NW6       30.06R WCI   3
SHEBOYGAN      CLEAR     11  -5  48 NW6       30.06R WCI   1
WEST BEND      CLEAR     12  -4  48 CALM      30.05R
JUNEAU         PTCLDY    11  -1  57 NW6       30.06R WCI   1
$$

LSZ147-162-110000-
LAKE SUPERIOR

STATION/POSITION TIME  TEMP    WIND        PRES    WAVE
                       AIR SEA DIR/SP/G            HT/PER
                 (UTC) (F)     (DEG/KT/KT) (MB)    (FT/S)
DEVILS ISLAND    2200    9     280/  7/ 10 1022.7R
SAXON HARBOR     2200   11                 1020.3R
$$

LMZ867-665-643>646-110000-
LAKE MICHIGAN

STATION/POSITION TIME  TEMP    WIND        PRES    WAVE
                       AIR SEA DIR/SP/G            HT/PER
                 (UTC) (F)     (DEG/KT/KT) (MB)    (FT/S)
CHAMBERS ISLAND  2200   13     300/ 12/ 20 1016.9R
ALGOMA LAKESHORE 2211          340/ 11/ 16   N/A
KEWAUNEE LAKESHO 2200   14     320/  7/ 13   N/A
SHEBOYGAN LAKESH 2200   12     310/ 13/ 17 1018.7R
PORT WASHINGTON  2240   14     320/  8/ 13 1019.3R
MILWAUKEE LAKESH 2210   14     330/ 10/ 12   N/A
KENOSHA   LAKESH 2200   14     310/ 10/ 14 1017.3R
$$

TC  - TEMPERATURE IN CELSIUS
VSB - VISIBILITY IN STATUTE MILES
WCI - WIND CHILL INDEX
HX  - HEAT INDEX




USA.gov is the U.S. government's official web portal to all federal, state and local government web resources and services.